FW6490 Weather Reports


time (UTC)temp
C
wind
direction
speed
KPH
gust
KPH
rain 1hr
cm
rain 24hr
cm
rain mn
cm
humidity
%
barometer
mb
20260831014135 17 244 6.4 16.1 0.00 0.00 0.00 77 1007.9
20260831013635 17 286 4.8 16.1 0.00 0.00 0.00 75 1007.9
20260831013130 17 283 4.8 12.9 0.00 0.00 0.00 74 1007.9
20260831012631 18 316 4.8 11.3 0.00 0.00 0.00 73 1008.0
20260831012128 18 304 4.8 9.7 0.00 0.00 0.00 72 1008.0
20260831011625 19 309 6.4 12.9 0.00 0.00 0.00 72 1008.0
20260831011124 19 310 8.0 16.1 0.00 0.00 0.00 71 1008.0
20260831010625 19 321 6.4 16.1 0.00 0.00 0.00 70 1008.0
20260831010122 19 306 6.4 11.3 0.00 0.00 0.00 70 1008.0
20260831005621 19 327 6.4 14.5 0.00 0.00 0.00 70 1007.9
20260831004622 20 294 6.4 16.1 0.00 0.00 0.00 69 1007.9
20260831003616 20 323 8.0 19.3 0.00 0.00 0.00 68 1007.8
20260831003114 20 321 6.4 19.3 0.00 0.00 0.00 67 1007.8
20260831002109 20 304 8.0 16.1 0.00 0.00 0.00 67 1007.7
20260831001607 21 303 6.4 16.1 0.00 0.00 0.00 66 1007.7
20260831001107 21 351 6.4 12.9 0.00 0.00 0.00 66 1007.6
20260831000608 21 304 6.4 14.5 0.00 0.00 0.00 65 1007.6
20260831000111 21 340 6.4 14.5 0.00 0.00 0.00 65 1007.6
20260830235610 21 309 8.0 17.7 0.00 0.00 0.00 65 1007.6
20260830235105 21 300 6.4 17.7 0.00 0.00 0.00 65 1007.6
20260830234104 21 331 8.0 17.7 0.00 0.00 0.00 65 1007.7
20260830233100 21 315 9.7 19.3 0.00 0.00 0.00 65 1007.7
20260830232559 21 18 8.0 17.7 0.00 0.00 0.00 64 1007.9
20260830231556 21 323 8.0 17.7 0.00 0.00 0.00 63 1008.0
20260830231054 22 311 8.0 17.7 0.00 0.00 0.00 63 1008.1
20260830230552 22 321 8.0 17.7 0.00 0.00 0.00 63 1008.1
20260830230049 22 315 8.0 14.5 0.00 0.00 0.00 62 1008.1
20260830225546 22 315 6.4 16.1 0.00 0.00 0.00 61 1008.1
20260830225048 22 332 6.4 16.1 0.00 0.00 0.00 61 1008.1
20260830224546 22 309 6.4 14.5 0.00 0.00 0.00 61 1008.1
20260830223543 22 324 6.4 16.1 0.00 0.00 0.00 61 1008.2
20260830223039 22 344 6.4 16.1 0.00 0.00 0.00 61 1008.2
20260830222036 22 328 6.4 14.5 0.00 0.00 0.00 61 1008.2
20260830221536 22 302 8.0 14.5 0.00 0.00 0.00 61 1008.2
20260830220536 22 277 8.0 16.1 0.00 0.00 0.00 61 1008.3
20260830220038 23 318 6.4 16.1 0.00 0.00 0.00 60 1008.3
20260830215536 23 334 6.4 16.1 0.00 0.00 0.00 60 1008.6
20260830215034 22 273 8.0 14.5 0.00 0.00 0.00 61 1008.6
20260830214538 23 16 8.0 16.1 0.00 0.00 0.00 60 1008.6
20260830214037 23 295 6.4 16.1 0.00 0.00 0.00 61 1008.6
20260830213534 22 333 8.0 16.1 0.00 0.00 0.00 61 1008.6
20260830213036 22 317 8.0 17.7 0.00 0.00 0.00 62 1008.6
20260830212532 22 346 8.0 17.7 0.00 0.00 0.00 61 1008.7
20260830212032 22 25 8.0 17.7 0.00 0.00 0.00 61 1008.7
20260830211529 22 348 8.0 17.7 0.00 0.00 0.00 61 1008.7
20260830211028 22 323 8.0 16.1 0.00 0.00 0.00 61 1008.7
20260830210527 22 315 8.0 14.5 0.00 0.00 0.00 62 1008.7
20260830210026 22 319 8.0 16.1 0.00 0.00 0.00 62 1008.7
20260830205524 21 311 9.7 17.7 0.00 0.00 0.00 63 1008.6
20260830205022 22 292 8.0 17.7 0.00 0.00 0.00 63 1008.7
20260830204522 22 317 8.0 17.7 0.00 0.00 0.00 63 1008.7
20260830204022 22 321 8.0 17.7 0.00 0.00 0.00 61 1008.7
20260830203518 22 312 8.0 16.1 0.00 0.00 0.00 61 1008.7
20260830203016 22 323 6.4 16.1 0.00 0.00 0.00 61 1008.7
20260830202514 22 311 6.4 16.1 0.00 0.00 0.00 62 1008.6
20260830202015 22 316 8.0 20.9 0.00 0.00 0.00 63 1008.6
20260830201514 22 339 9.7 20.9 0.00 0.00 0.00 63 1008.6
20260830201010 21 307 9.7 16.1 0.00 0.00 0.00 64 1008.6
20260830200508 21 301 8.0 17.7 0.00 0.00 0.00 64 1008.6
20260830195506 22 323 8.0 16.1 0.00 0.00 0.00 64 1008.9
20260830194505 21 350 9.7 19.3 0.00 0.00 0.00 64 1008.7
20260830194004 21 5 9.7 19.3 0.00 0.00 0.00 65 1008.9
20260830193504 21 311 9.7 19.3 0.00 0.00 0.00 65 1008.9
20260830193004 21 306 9.7 19.3 0.00 0.00 0.00 65 1008.9
20260830192505 22 319 8.0 14.5 0.00 0.00 0.00 64 1009.0
20260830192004 21 319 6.4 12.9 0.00 0.00 0.00 65 1009.0
20260830191505 21 318 8.0 20.9 0.00 0.00 0.00 65 1009.0
20260830190503 21 355 8.0 16.1 0.00 0.00 0.00 66 1009.0
20260830190001 21 317 8.0 14.5 0.00 0.00 0.00 66 1009.0
20260830185504 21 313 8.0 16.1 0.00 0.00 0.00 67 1009.1
20260830184457 21 320 9.7 16.1 0.00 0.00 0.00 68 1009.1
20260830183956 21 291 8.0 16.1 0.00 0.00 0.00 66 1009.1
20260830183458 22 311 6.4 12.9 0.00 0.00 0.00 65 1009.1
20260830182955 22 342 4.8 12.9 0.00 0.00 0.00 65 1009.2
20260830182455 22 303 4.8 11.3 0.00 0.00 0.00 65 1009.2
20260830181450 21 77 0.0 8.0 0.00 0.00 0.00 67 1009.1
20260830180950 21 84 1.6 8.0 0.00 0.00 0.00 67 1009.1
20260830175947 20 47 3.2 8.0 0.00 0.00 0.00 71 1009.1
20260830175446 20 86 1.6 8.0 0.00 0.00 0.00 72 1009.0
20260830173936 19 83 1.6 8.0 0.00 0.00 0.00 74 1008.9
20260830173440 19 76 1.6 6.4 0.00 0.00 0.00 75 1008.9
20260830172936 18 90 0.0 6.4 0.00 0.00 0.00 76 1008.9
20260830171934 18 125 0.0 4.8 0.00 0.00 0.00 76 1008.9
20260830171430 18 126 0.0 4.8 0.00 0.00 0.00 78 1008.9
20260830170930 18 127 0.0 1.6 0.00 0.00 0.00 81 1008.6
20260830170427 17 127 0.0 1.6 0.00 0.00 0.00 81 1008.6
20260830165925 17 128 0.0 4.8 0.00 0.00 0.00 82 1008.6
20260830165426 17 128 0.0 4.8 0.00 0.00 0.00 83 1008.6
20260830164929 17 130 0.0 4.8 0.00 0.00 0.00 85 1008.5
20260830164424 16 132 0.0 4.8 0.00 0.00 0.00 87 1008.5
20260830163922 16 133 1.6 4.8 0.00 0.00 0.00 89 1008.6
20260830163423 16 134 1.6 6.4 0.00 0.00 0.00 89 1008.6
20260830162919 16 123 0.0 6.4 0.00 0.00 0.00 91 1008.6
20260830162419 15 333 0.0 3.2 0.00 0.00 0.00 93 1008.5
20260830161917 15 333 1.6 4.8 0.00 0.00 0.00 94 1008.5
20260830161418 15 333 1.6 6.4 0.00 0.00 0.00 95 1008.5
20260830160916 14 333 1.6 6.4 0.00 0.00 0.00 96 1008.6
20260830160415 13 334 1.6 4.8 0.00 0.00 0.00 96 1008.6
20260830155907 13 333 1.6 4.8 0.00 0.00 0.00 96 1008.6
20260830155406 13 333 1.6 4.8 0.00 0.00 0.00 96 1008.9
20260830154904 13 333 0.0 4.8 0.00 0.00 0.00 96 1008.9
20260830154358 12 333 0.0 0.0 0.00 0.00 0.00 96 1008.7
20260830153857 12 333 0.0 0.0 0.00 0.00 0.00 96 1008.9
20260830153357 12 333 0.0 0.0 0.00 0.00 0.00 96 1008.9
20260830152859 12 333 0.0 0.0 0.00 0.00 0.00 96 1008.9
20260830152356 11 333 0.0 0.0 0.00 0.00 0.00 96 1008.9
20260830151853 11 333 0.0 0.0 0.00 0.00 0.00 96 1008.9
20260830150843 11 333 0.0 0.0 0.00 0.00 0.00 96 1008.5
20260830150345 11 333 0.0 0.0 0.00 0.00 0.00 96 1008.5
20260830145343 10 333 0.0 0.0 0.00 0.00 0.00 96 1008.4
20260830144338 10 333 0.0 0.0 0.00 0.00 0.00 96 1008.4
20260830143833 10 333 0.0 0.0 0.00 0.00 0.00 95 1008.4
20260830143328 10 333 0.0 0.0 0.00 0.00 0.00 96 1008.4
20260830142829 10 333 0.0 0.0 0.00 0.00 0.00 96 1008.2
20260830141815 9 333 0.0 0.0 0.00 0.00 0.00 96 1008.2
20260830141310 9 333 0.0 0.0 0.00 0.00 0.00 96 1008.0
20260830140307 8 333 0.0 0.0 0.00 0.00 0.00 95 1008.0
20260830135807 8 333 0.0 0.0 0.00 0.00 0.00 95 1008.0
20260830135308 8 333 0.0 0.0 0.00 0.00 0.00 95 1008.0
20260830134301 8 333 0.0 0.0 0.00 0.00 0.00 95 1008.0
20260830133800 8 333 0.0 0.0 0.00 0.00 0.00 95 1008.0
20260830132759 8 333 0.0 0.0 0.00 0.00 0.00 95 1007.9
20260830132257 8 333 0.0 0.0 0.00 0.00 0.00 95 1007.9
20260830131757 9 333 0.0 0.0 0.00 0.00 0.00 95 1007.9
20260830131252 9 333 0.0 0.0 0.00 0.00 0.00 95 1007.8
20260830130750 9 333 0.0 0.0 0.00 0.00 0.00 95 1007.8
20260830124741 9 333 0.0 0.0 0.00 0.00 0.00 95 1007.7
20260830124234 9 333 0.0 0.0 0.00 0.00 0.00 95 1007.7
20260830123740 9 333 0.0 0.0 0.00 0.00 0.00 95 1007.7
20260830122732 9 333 0.0 0.0 0.00 0.00 0.00 94 1007.6
20260830122229 9 333 0.0 0.0 0.00 0.00 0.00 95 1007.6
20260830121728 9 333 0.0 0.0 0.00 0.00 0.00 95 1007.6
20260830121222 9 333 0.0 0.0 0.00 0.00 0.00 95 1007.7
20260830120718 9 333 0.0 0.0 0.00 0.00 0.00 95 1007.7
20260830120215 9 333 0.0 0.0 0.00 0.00 0.00 94 1007.7
20260830115211 9 333 0.0 0.0 0.00 0.00 0.00 94 1007.7
20260830114708 9 333 0.0 0.0 0.00 0.00 0.00 94 1007.7
20260830113205 9 333 0.0 0.0 0.00 0.00 0.00 95 1007.8
20260830112706 9 333 0.0 0.0 0.00 0.00 0.00 95 1007.8
20260830112201 9 333 0.0 0.0 0.00 0.00 0.00 95 1007.8
20260830111702 9 333 0.0 0.0 0.00 0.00 0.00 95 1007.8
20260830110659 9 333 0.0 0.0 0.00 0.00 0.00 94 1007.7
20260830110154 9 333 0.0 0.0 0.00 0.00 0.00 94 1007.7
20260830105650 9 333 0.0 0.0 0.00 0.00 0.00 94 1007.8
20260830105145 9 333 0.0 0.0 0.00 0.00 0.00 94 1007.8
20260830104644 9 333 0.0 0.0 0.00 0.00 0.00 94 1007.8
20260830104146 9 333 0.0 0.0 0.00 0.00 0.00 94 1007.8
20260830103644 9 333 0.0 0.0 0.00 0.00 0.00 94 1007.8
20260830103142 9 333 0.0 0.0 0.00 0.00 0.00 94 1007.8
20260830102642 9 333 0.0 0.0 0.00 0.00 0.00 94 1007.8
20260830102141 9 333 0.0 0.0 0.00 0.00 0.00 94 1007.8
20260830101635 10 333 0.0 0.0 0.00 0.00 0.00 94 1007.8
20260830101130 10 333 0.0 0.0 0.00 0.00 0.00 94 1007.7
20260830100625 10 333 0.0 0.0 0.00 0.00 0.00 94 1007.7
20260830100124 10 333 0.0 0.0 0.00 0.00 0.00 94 1007.7
20260830095625 10 333 0.0 0.0 0.00 0.00 0.00 93 1007.8
20260830095121 10 333 0.0 0.0 0.00 0.00 0.00 94 1007.8
20260830094620 10 333 0.0 0.0 0.00 0.00 0.00 94 1007.8
20260830094123 10 333 0.0 0.0 0.00 0.00 0.00 94 1007.5
20260830093115 10 333 0.0 0.0 0.00 0.00 0.00 94 1007.5
20260830092615 10 333 0.0 0.0 0.00 0.00 0.00 93 1007.4
20260830092114 10 333 0.0 0.0 0.00 0.00 0.00 94 1007.4
20260830091111 10 333 0.0 0.0 0.00 0.00 0.00 94 1007.4
20260830090612 10 333 0.0 0.0 0.00 0.00 0.00 94 1007.4
20260830090108 10 333 0.0 0.0 0.00 0.00 0.00 94 1007.4
20260830085609 10 333 0.0 0.0 0.00 0.00 0.00 94 1007.5
20260830085104 10 333 0.0 0.0 0.00 0.00 0.00 93 1007.5
20260830084604 11 333 0.0 0.0 0.00 0.00 0.00 93 1007.5
20260830084102 11 333 0.0 0.0 0.00 0.00 0.00 93 1007.5
20260830083600 11 333 0.0 0.0 0.00 0.00 0.00 93 1007.5
20260830083104 11 333 0.0 0.0 0.00 0.00 0.00 94 1007.5
20260830082555 11 333 0.0 0.0 0.00 0.00 0.00 94 1007.7
20260830082056 11 333 0.0 0.0 0.00 0.00 0.00 94 1007.7
20260830081554 11 333 0.0 0.0 0.00 0.00 0.00 94 1007.7
20260830081053 11 333 0.0 0.0 0.00 0.00 0.00 93 1007.8
20260830080548 10 333 0.0 0.0 0.00 0.00 0.00 93 1007.8
20260830080046 10 333 0.0 0.0 0.00 0.00 0.00 93 1007.8
20260830075044 10 333 0.0 0.0 0.00 0.00 0.00 93 1007.8
20260830073541 11 333 0.0 0.0 0.00 0.00 0.00 92 1007.8
20260830073040 11 333 0.0 0.0 0.00 0.00 0.00 92 1007.8
20260830072539 11 333 0.0 0.0 0.00 0.00 0.00 92 1007.9
20260830071032 11 333 0.0 0.0 0.00 0.00 0.00 92 1007.9
20260830070529 11 333 0.0 0.0 0.00 0.00 0.00 92 1007.9
20260830070028 11 333 0.0 0.0 0.00 0.00 0.00 92 1007.9
20260830065524 11 333 0.0 0.0 0.00 0.00 0.00 92 1007.9
20260830065026 11 333 0.0 0.0 0.00 0.00 0.00 92 1007.9
20260830064521 11 333 0.0 0.0 0.00 0.00 0.00 92 1007.9
20260830063524 11 333 0.0 0.0 0.00 0.00 0.00 91 1007.9
20260830063017 11 333 0.0 0.0 0.00 0.00 0.00 91 1007.9
20260830062514 11 333 0.0 0.0 0.00 0.00 0.00 91 1007.9
20260830062012 11 333 0.0 0.0 0.00 0.00 0.00 91 1007.9
20260830061509 11 333 0.0 0.0 0.00 0.00 0.00 91 1007.9
20260830061006 11 333 0.0 0.0 0.00 0.00 0.00 91 1008.1
20260830055502 12 333 0.0 0.0 0.00 0.00 0.00 90 1008.2
20260830054455 12 333 0.0 0.0 0.00 0.00 0.00 90 1008.2
20260830053456 12 333 0.0 0.0 0.00 0.00 0.00 90 1008.3
20260830052449 12 333 0.0 0.0 0.00 0.00 0.00 90 1008.3
20260830051447 12 333 0.0 0.0 0.00 0.00 0.00 90 1008.3
20260830050946 13 333 0.0 0.0 0.00 0.00 0.00 90 1008.4
20260830045950 13 333 0.0 0.0 0.00 0.00 0.00 90 1008.4
20260830045444 13 333 0.0 0.0 0.00 0.00 0.00 90 1008.3
20260830044941 13 333 0.0 0.0 0.00 0.00 0.00 90 1008.3
20260830044441 13 333 0.0 0.0 0.00 0.00 0.00 90 1008.3
20260830043935 13 333 0.0 0.0 0.00 0.00 0.00 90 1008.4
20260830043435 13 333 0.0 0.0 0.00 0.00 0.00 90 1008.4
20260830042935 13 333 0.0 0.0 0.00 0.00 0.00 90 1008.4
20260830042436 13 333 0.0 0.0 0.00 0.00 0.00 89 1008.3
20260830041930 13 333 0.0 0.0 0.00 0.00 0.00 89 1008.3
20260830041428 14 333 0.0 0.0 0.00 0.00 0.00 90 1008.3
20260830040926 14 333 0.0 0.0 0.00 0.00 0.00 90 1008.0
20260830040425 14 333 0.0 3.2 0.00 0.00 0.00 90 1008.0
20260830035924 14 333 1.6 6.4 0.00 0.00 0.00 89 1008.0
20260830035416 14 333 1.6 6.4 0.00 0.00 0.00 89 1007.9
20260830034917 14 333 1.6 4.8 0.00 0.00 0.00 89 1007.9
20260830034415 14 333 1.6 4.8 0.00 0.00 0.00 89 1007.9
20260830033914 14 333 1.6 3.2 0.00 0.00 0.00 88 1007.9
20260830032916 15 333 0.0 4.8 0.00 0.00 0.00 87 1007.9
20260830032411 15 333 1.6 4.8 0.00 0.00 0.00 87 1007.8
20260830030401 15 333 1.6 8.0 0.00 0.00 0.00 86 1007.7
20260830025904 15 333 1.6 8.0 0.00 0.00 0.00 86 1007.6
20260830025358 15 333 3.2 8.0 0.00 0.00 0.00 86 1007.6
20260830024855 15 333 4.8 8.0 0.00 0.00 0.00 86 1007.6
20260830023351 16 313 4.8 12.9 0.00 0.00 0.00 85 1007.5
20260830022847 16 309 6.4 12.9 0.00 0.00 0.00 84 1007.4
20260830022347 16 325 6.4 11.3 0.00 0.00 0.00 84 1007.4
20260830021846 16 325 6.4 11.3 0.00 0.00 0.00 83 1007.4
20260830021345 16 308 6.4 12.9 0.00 0.00 0.00 83 1007.4
20260830020846 16 317 6.4 12.9 0.00 0.00 0.00 83 1007.4
20260830020348 16 320 4.8 9.7 0.00 0.00 0.00 82 1007.4
20260830015846 16 327 6.4 12.9 0.00 0.00 0.00 82 1007.6
20260830015341 17 299 8.0 12.9 0.00 0.00 0.00 81 1007.7